TimeAKST,TemperatureF,Dew PointF,Humidity,Sea Level PressureIn,VisibilityMPH,Wind Direction,Wind SpeedMPH,Gust SpeedMPH,PrecipitationIn,Events,Conditions,WindDirDegrees,DateUTC
12:53 AM,26.6,6.8,43,29.73,10.0,West,8.1,-,N/A,,Clear,270,2011-11-14 09:53:00
1:53 AM,27.0,7.0,43,29.74,10.0,West,6.9,-,N/A,,Clear,270,2011-11-14 10:53:00
3:53 AM,24.1,9.0,53,29.73,10.0,Calm,Calm,-,N/A,,Mostly Cloudy,0,2011-11-14 12:53:00
4:53 AM,18.0,9.0,68,29.73,10.0,Calm,Calm,-,N/A,,Overcast,0,2011-11-14 13:53:00
5:53 AM,19.0,10.0,68,29.71,10.0,Calm,Calm,-,N/A,,Overcast,0,2011-11-14 14:53:00
6:53 AM,16.0,9.0,74,29.70,10.0,Calm,Calm,-,N/A,,Overcast,0,2011-11-14 15:53:00
7:53 AM,14.0,8.1,77,29.71,10.0,NE,4.6,-,N/A,,Overcast,50,2011-11-14 16:53:00
8:53 AM,16.0,9.0,74,29.73,10.0,NE,4.6,-,N/A,,Overcast,50,2011-11-14 17:53:00
9:53 AM,16.0,9.0,74,29.75,10.0,Calm,Calm,-,N/A,,Mostly Cloudy,0,2011-11-14 18:53:00
10:53 AM,18.0,12.0,78,29.76,10.0,North,4.6,-,N/A,,Overcast,10,2011-11-14 19:53:00
11:53 AM,18.0,12.9,81,29.77,10.0,Calm,Calm,-,N/A,,Clear,0,2011-11-14 20:53:00
12:53 PM,18.0,12.9,81,29.78,10.0,NNE,6.9,-,N/A,,Clear,20,2011-11-14 21:53:00
1:53 PM,19.9,16.0,85,29.78,10.0,ENE,5.8,-,N/A,,Clear,70,2011-11-14 22:53:00
2:53 PM,19.0,15.1,85,29.78,10.0,ENE,4.6,-,N/A,,Clear,70,2011-11-14 23:53:00
3:53 PM,16.0,14.0,92,29.79,8.0,NE,4.6,-,N/A,,Clear,40,2011-11-15 00:53:00
4:53 PM,10.9,10.0,96,29.80,10.0,NNE,9.2,-,N/A,,Partly Cloudy,30,2011-11-15 01:53:00
5:53 PM,10.9,10.9,100,29.81,10.0,Calm,Calm,-,N/A,,Clear,0,2011-11-15 02:53:00
5:58 PM,10.4,10.4,100,29.80,2.0,NNE,3.5,-,N/A,,Partly Cloudy,30,2011-11-15 02:58:00
6:05 PM,8.6,6.8,92,29.80,10.0,NE,3.5,-,N/A,,Clear,40,2011-11-15 03:05:00
6:53 PM,8.1,7.0,95,29.82,10.0,NNE,6.9,-,N/A,,Clear,30,2011-11-15 03:53:00
7:00 PM,6.8,6.8,100,29.81,0.5,NNE,6.9,-,N/A,Fog,Light Freezing Fog,30,2011-11-15 04:00:00
7:08 PM,6.8,6.8,100,29.81,10.0,NE,8.1,-,N/A,,Clear,40,2011-11-15 04:08:00
7:29 PM,6.8,6.8,100,29.81,10.0,NE,6.9,-,N/A,,Mostly Cloudy,50,2011-11-15 04:29:00
7:53 PM,10.0,8.1,92,29.83,10.0,Calm,Calm,-,N/A,,Overcast,0,2011-11-15 04:53:00
8:42 PM,10.4,8.6,92,29.82,10.0,Calm,Calm,-,N/A,,Overcast,0,2011-11-15 05:42:00
8:53 PM,10.0,9.0,95,29.83,5.0,Calm,Calm,-,N/A,,Overcast,0,2011-11-15 05:53:00
9:22 PM,8.6,6.8,92,29.82,1.5,Calm,Calm,-,N/A,,Overcast,0,2011-11-15 06:22:00
9:27 PM,8.6,6.8,92,29.82,0.5,Calm,Calm,-,N/A,Fog,Light Freezing Fog,0,2011-11-15 06:27:00
9:39 PM,8.6,6.8,92,29.82,2.5,ENE,3.5,-,N/A,,Overcast,60,2011-11-15 06:39:00
9:46 PM,8.6,6.8,92,29.82,9.0,ENE,3.5,-,N/A,,Overcast,60,2011-11-15 06:46:00
9:53 PM,6.1,3.9,91,29.83,2.0,Calm,Calm,-,N/A,,Overcast,0,2011-11-15 06:53:00
10:06 PM,6.8,5.0,92,29.82,6.0,Calm,Calm,-,N/A,,Overcast,0,2011-11-15 07:06:00
10:11 PM,6.8,5.0,92,29.82,1.5,Calm,Calm,-,N/A,,Overcast,0,2011-11-15 07:11:00
10:24 PM,6.8,5.0,92,29.82,0.8,NNE,3.5,-,N/A,,Mist,30,2011-11-15 07:24:00
10:49 PM,6.8,3.2,85,29.82,1.2,Calm,Calm,-,N/A,,Overcast,0,2011-11-15 07:49:00
10:53 PM,6.1,3.9,91,29.83,1.2,Calm,Calm,-,N/A,,Overcast,0,2011-11-15 07:53:00
11:04 PM,6.8,5.0,92,29.82,0.5,Calm,Calm,-,N/A,Fog,Light Freezing Fog,0,2011-11-15 08:04:00
11:23 PM,5.0,3.2,92,29.83,1.0,Calm,Calm,-,N/A,,Mist,0,2011-11-15 08:23:00
11:32 PM,6.8,3.2,85,29.83,0.5,Calm,Calm,-,N/A,Fog,Light Freezing Fog,0,2011-11-15 08:32:00
11:37 PM,6.8,3.2,85,29.83,0.5,Calm,Calm,-,N/A,Fog,Light Freezing Fog,0,2011-11-15 08:37:00
11:45 PM,3.2,1.4,92,29.83,0.5,Calm,Calm,-,N/A,Fog,Light Freezing Fog,0,2011-11-15 08:45:00
11:53 PM,3.0,-0.0,87,29.84,0.2,Calm,Calm,-,N/A,Fog,Light Freezing Fog,0,2011-11-15 08:53:00